#timestamp,LO_Frequency,Hit,StdDev 
1607259615.7,286046999.8,P
1607259635.6,286047000.2,N
1607259655.4,286046998.8,N
1607259675.2,286047001.1,N
1607259695.1,286047000.0,N
1607259696.0,286047000.0,N
1607259715.8,286047001.1,N
1607259735.7,286047000.3,N
1607259755.5,286046998.1,N
1607259775.3,286047002.1,N
1607259795.2,286046999.7,N
1607259815.0,286047000.7,N
1607259815.9,286047000.7,N
1607259835.7,286047001.1,N
1607259855.6,286047000.7,N
1607259875.4,286047002.4,N
1607259895.3,286047002.3,N
1607259915.1,286046999.7,N
1607259916.0,286046999.7,N
1607259935.8,286047002.7,N
1607259955.7,286046998.1,N
1607259975.5,286046999.8,N
1607259995.4,286047002.3,N
1607260015.2,286047001.5,N
1607260035.0,286046999.8,N
1607260035.9,286046999.8,N
1607260055.8,286047002.1,N
1607260075.6,286047001.6,N
1607260095.4,286047002.7,N
1607260115.3,286047000.2,N
1607260135.1,286046999.8,N
1607260155.9,286047001.4,N
1607260175.7,286047002.1,N
1607260195.5,286047001.1,N
1607260215.4,286046999.8,N
1607260235.2,286047000.2,N
1607260255.0,286046999.9,N
1607260255.9,286046999.9,N
1607260275.8,286047000.2,N
1607260295.6,286046999.8,N
1607260315.5,286046999.8,N
1607260335.3,286047000.4,N
1607260355.1,286047001.4,N
1607260375.9,286047000.1,N
1607260395.7,286047002.2,N
1607260415.5,286047001.2,N
1607260435.4,286047000.6,N
1607260455.2,286047001.1,N
1607260475.1,286047000.5,N
1607260476.0,286047000.5,N
1607260495.8,286047000.5,N
1607260515.6,286047000.4,N
1607260535.5,286047000.9,N
1607260555.3,286047000.4,N
1607260575.1,286047000.9,N
1607260595.9,286047000.9,N
1607260615.7,286046999.7,N
1607260635.6,286047000.1,N
1607260655.4,286047000.3,N
1607260675.2,286047001.6,N
1607260695.1,286047002.2,Y
1607260696.0,286047002.2,P
1607260715.8,286046999.7,N
1607260735.6,286046999.7,N
1607260755.5,286046999.7,N
1607260775.3,286047000.6,N
1607260795.2,286046998.1,N
1607260815.9,286047001.0,N
1607260835.7,286047000.7,N
1607260855.6,286047001.1,N
1607260875.4,286047001.1,N
1607260895.2,286046998.6,N
1607260915.1,286047000.8,N
1607260916.0,286047000.8,N
1607260935.8,286046998.1,N
1607260955.7,286046999.5,N
1607260975.5,286046999.1,N
1607260995.3,286047000.9,N
1607261015.2,286046998.5,N
1607261035.0,286046998.9,N
1607261035.9,286046998.9,N
1607261055.7,286046999.3,N
1607261075.6,286047002.4,N
1607261095.4,286047004.4,Y
1607261115.3,286047002.2,P
1607261135.1,286047002.1,N
1607261155.8,286047001.0,N
1607261175.7,286047000.7,N
1607261195.5,286047001.1,N
1607261215.4,286047000.7,N
1607261235.2,286047001.2,N
1607261255.0,286046996.5,Y
1607261255.9,286046996.5,P
1607261275.8,286047002.5,N
1607261295.6,286047006.0,N
1607261315.4,286047005.3,N
1607261335.3,286047001.7,N
1607261355.1,286047001.5,N
1607261375.9,286047004.1,N
1607261395.7,286047002.6,N
1607261415.5,286047002.4,N
1607261435.4,286047002.2,N
1607261455.2,286047001.9,N
1607261475.0,286047001.3,N
1607261475.9,286047001.3,N
1607261495.8,286047001.9,N
1607261515.6,286047002.5,N
1607261535.5,286047002.1,N
1607261555.3,286047004.4,N
1607261575.1,286047004.2,N
1607261595.9,286047003.3,N
1607261615.7,286047002.9,N
1607261635.5,286047005.0,N
1607261655.4,286047007.1,Y
1607261675.2,286047005.6,P
1607261695.1,286047005.9,P
1607261696.0,286047005.9,P
1607261715.8,286047005.8,Y
1607261735.6,286046998.1,P
1607261755.5,286046999.2,N
1607261775.3,286046998.7,N
1607261795.2,286047001.4,N
1607261815.9,286047004.2,N
1607261835.7,286047004.9,N
1607261855.6,286047008.8,Y
1607261875.4,286047008.6,P
1607261895.2,286047012.1,P
1607261915.1,286047008.8,N
1607261916.0,286047008.8,N
1607261935.8,286047004.5,N
1607261955.7,286047008.7,N
1607261975.5,286047009.5,N
1607261995.3,286047010.5,Y
1607262015.2,286046998.7,P
1607262035.0,286046999.7,N
1607262035.9,286046999.7,N
1607262055.7,286046998.4,N
1607262075.6,286047002.4,N
1607262095.4,286047001.7,N
1607262115.3,286047001.7,N
1607262135.1,286047000.7,N
1607262136.0,286047000.7,N
1607262155.8,286046998.9,N
1607262175.7,286046996.5,N
1607262195.5,286046999.6,N
1607262215.3,286046997.3,N
1607262235.2,286046994.9,N
1607262255.0,286046995.2,N
1607262255.9,286046995.2,N
1607262275.8,286046997.6,N
1607262295.6,286046997.5,N
1607262315.4,286046997.6,N
1607262335.3,286046995.7,N
1607262355.1,286046995.5,N
1607262375.9,286046995.1,N
1607262395.7,286046995.1,N
1607262415.5,286046993.8,N
1607262435.4,286046999.2,N
1607262455.2,286046999.4,N
1607262475.0,286046998.5,N
1607262475.9,286046998.5,N
1607262495.8,286046999.9,N
1607262515.6,286047007.6,N
1607262535.5,286047000.1,N
1607262555.3,286047003.7,N
1607262575.1,286047003.3,N
1607262595.9,286047004.6,N
1607262615.7,286047001.8,N
1607262635.5,286046998.6,N
1607262655.4,286046997.1,N
1607262675.2,286046997.8,N
1607262695.1,286046997.8,N
1607262696.0,286046997.8,N
1607262715.8,286046997.5,N
1607262735.6,286046995.3,N
1607262755.5,286046997.4,N
1607262775.3,286046998.6,N
1607262795.1,286046998.1,N
1607262815.9,286046998.6,N
1607262835.7,286046999.0,N
1607262855.6,286046999.1,N
1607262875.4,286046999.0,N
1607262895.2,286046998.6,N
1607262915.1,286046998.5,N
1607262916.0,286046998.5,N
1607262935.8,286046998.2,N
1607262955.6,286046998.8,N
1607262975.5,286046999.5,N
1607262995.3,286046996.6,N
1607263015.2,286046998.8,N
1607263035.9,286046998.2,N
1607263055.7,286047001.1,N
1607263075.6,286046998.5,N
1607263095.4,286046996.5,N
1607263115.2,286046998.3,N
1607263135.1,286047000.6,N
1607263136.0,286047000.6,N
1607263155.8,286047001.3,N
1607263175.7,286047008.7,Y
1607263195.5,286047011.8,P
